Tracking 29892 objects as of 21-Nov-2024
HD Live streaming from Space Station
objects crossing your sky now

STARLINK-2095

Track STARLINK-2095 now!
10-day predictions
STARLINK-2095 is classified as:


NORAD ID: 47679
Int'l Code: 2021-012BM
Perigee: 542.6 km
Apogee: 546.9 km
Inclination: 53.1 °
Period: 95.4 minutes
Semi major axis: 6915 km
RCS: Unknown
Launch date: February 16, 2021
Source: United States (US)
Launch site: AIR FORCE EASTERN TEST RANGE (AFETR)
Your satellite tracking list
Your tracking list is empty




NASA's NSSDC Master Catalog

Two Line Element Set (TLE):
1 47679U 21012BM  24325.59054330  .00021670  00000-0  13491-2 0  9990
2 47679  53.0518  39.3841 0003101  14.7624 345.3456 15.09544814208027
Source of the keplerian elements: AFSPC